DW9565 Weather Reports


Display with metric or nautical units.
time (UTC)temp
F
wind
direction
speed
MPH
gust
MPH
rain 1hr
in
rain 24hr
in
rain mn
in
humidity
%
barometer
mb
20260509103007 51 207 1.0 3.0 0.00 0.00 0.00 49 1015.5
20260509101504 51 207 1.0 3.0 0.00 0.00 0.00 48 1015.3
20260509100005 51 207 1.0 3.0 0.00 0.00 0.00 49 1015.3
20260509094503 50 207 0.0 2.0 0.00 0.00 0.00 50 1015.2
20260509093002 52 207 1.0 2.0 0.00 0.00 0.00 48 1015.1
20260509091504 51 207 2.0 3.0 0.00 0.00 0.00 48 1015.1
20260509090002 51 207 0.0 3.0 0.00 0.00 0.00 51 1015.1
20260509084601 50 207 0.0 3.0 0.00 0.00 0.00 54 1014.9
20260509083106 50 225 4.0 6.0 0.00 0.00 0.00 54 1014.8
20260509081558 51 127 5.0 8.0 0.00 0.00 0.00 52 1014.6
20260509080059 51 119 6.0 8.0 0.00 0.00 0.00 50 1014.5
20260509074554 51 115 7.0 9.0 0.00 0.00 0.00 49 1014.6
20260509073055 52 114 6.0 9.0 0.00 0.00 0.00 48 1014.4
20260509071554 53 109 7.0 10.0 0.00 0.00 0.00 47 1014.3
20260509070053 52 111 6.0 8.0 0.00 0.00 0.00 48 1014.2
20260509064559 53 121 7.0 10.0 0.00 0.00 0.00 48 1014.2
20260509063050 53 115 7.0 11.0 0.00 0.00 0.00 48 1014.0
20260509061551 53 104 8.0 11.0 0.00 0.00 0.00 47 1014.0
20260509060047 53 107 8.0 12.0 0.00 0.00 0.00 46 1013.9
20260509054549 54 96 9.0 13.0 0.00 0.00 0.00 45 1013.7
20260509053046 54 83 9.0 13.0 0.00 0.00 0.00 45 1013.7
20260509051548 54 101 7.0 14.0 0.00 0.00 0.00 46 1013.5
20260509050047 54 89 9.0 13.0 0.00 0.00 0.00 45 1013.4
20260509044545 54 69 8.0 13.0 0.00 0.00 0.00 45 1013.3
20260509043045 54 65 8.0 12.0 0.00 0.00 0.00 44 1013.2
20260509041545 56 41 8.0 11.0 0.00 0.00 0.00 40 1013.2
20260509040045 57 14 9.0 13.0 0.00 0.00 0.00 38 1012.8
20260509034546 57 16 6.0 10.0 0.00 0.00 0.00 36 1012.6
20260509033045 57 24 3.0 6.0 0.00 0.00 0.00 37 1012.3
20260509031544 58 11 4.0 8.0 0.00 0.00 0.00 36 1012.0
20260509030044 58 20 6.0 11.0 0.00 0.00 0.00 35 1011.9
20260509024546 59 36 7.0 13.0 0.00 0.00 0.00 34 1011.7
20260509023046 60 360 10.0 17.0 0.00 0.00 0.00 31 1011.5
20260509021544 60 13 6.0 10.0 0.00 0.00 0.00 31 1011.3
20260509020043 61 5 6.0 11.0 0.00 0.00 0.00 31 1011.3
20260509014546 62 346 4.0 8.0 0.00 0.00 0.00 31 1011.3
20260509013052 63 350 8.0 11.0 0.00 0.00 0.00 30 1011.3
20260509011545 64 327 6.0 15.0 0.00 0.00 0.00 27 1011.3
20260509010043 65 342 11.0 16.0 0.00 0.00 0.00 27 1011.3
20260509004542 65 342 7.0 16.0 0.00 0.00 0.00 27 1011.3
20260509003045 65 344 7.0 16.0 0.00 0.00 0.00 27 1011.2
20260509001542 66 317 12.0 19.0 0.00 0.00 0.00 26 1011.2
20260509000046 66 323 12.0 21.0 0.00 0.00 0.00 26 1011.1
20260508234543 67 316 16.0 24.0 0.00 0.00 0.00 26 1011.0
20260508233052 68 349 15.0 27.0 0.00 0.00 0.00 27 1010.9
20260508231547 68 323 19.0 26.0 0.00 0.00 0.00 26 1010.8
20260508230053 68 296 16.0 26.0 0.00 0.00 0.00 26 1011.0
20260508224542 69 300 18.0 31.0 0.00 0.00 0.00 25 1010.8
20260508223041 69 290 20.0 26.0 0.00 0.00 0.00 23 1010.8
20260508221540 69 294 20.0 28.0 0.00 0.00 0.00 24 1010.8
20260508220039 69 288 21.0 27.0 0.00 0.00 0.00 24 1010.9
20260508214639 68 328 14.0 26.0 0.00 0.00 0.00 24 1011.1
20260508213040 68 289 21.0 29.0 0.00 0.00 0.00 25 1011.0
20260508211540 69 286 18.0 26.0 0.00 0.00 0.00 24 1011.0
20260508210036 69 273 21.0 30.0 0.00 0.00 0.00 24 1011.1
20260508204540 68 320 19.0 28.0 0.00 0.00 0.00 23 1011.2
20260508203048 68 282 18.0 31.0 0.00 0.00 0.00 26 1011.3
20260508201535 68 269 21.0 29.0 0.00 0.00 0.00 23 1011.3
20260508200046 68 284 14.0 25.0 0.00 0.00 0.00 25 1011.4
20260508194533 67 296 18.0 29.0 0.00 0.00 0.00 26 1011.4
20260508193034 68 291 18.0 25.0 0.00 0.00 0.00 29 1011.3
20260508191538 67 234 15.0 24.0 0.00 0.00 0.00 26 1011.5
20260508190031 67 241 16.0 24.0 0.00 0.00 0.00 27 1011.7
20260508184532 67 275 19.0 25.0 0.00 0.00 0.00 27 1011.9
20260508183030 67 274 15.0 23.0 0.00 0.00 0.00 29 1011.9
20260508181527 67 241 15.0 25.0 0.00 0.00 0.00 30 1012.1
20260508180025 66 279 12.0 20.0 0.00 0.00 0.00 32 1012.2
20260508174528 65 242 12.0 21.0 0.00 0.00 0.00 33 1012.5
20260508173022 65 262 13.0 21.0 0.00 0.00 0.00 34 1012.3
20260508171526 65 278 11.0 20.0 0.00 0.00 0.00 34 1012.5
20260508170017 64 270 11.0 18.0 0.00 0.00 0.00 34 1012.8
20260508164515 64 285 12.0 18.0 0.00 0.00 0.00 35 1012.8
20260508163017 63 281 10.0 19.0 0.00 0.00 0.00 36 1012.9
20260508161514 63 254 11.0 19.0 0.00 0.00 0.00 36 1013.0
20260508160016 63 255 10.0 17.0 0.00 0.00 0.00 39 1013.0
20260508154510 62 219 9.0 14.0 0.00 0.00 0.00 43 1013.1
20260508153007 61 243 11.0 17.0 0.00 0.00 0.00 44 1013.1
20260508151505 61 215 11.0 16.0 0.00 0.00 0.00 44 1013.2
20260508150003 60 224 13.0 17.0 0.00 0.00 0.00 43 1013.2
20260508144600 60 199 11.0 16.0 0.00 0.00 0.00 45 1013.3
20260508143101 59 202 10.0 13.0 0.00 0.00 0.00 44 1013.3
20260508141556 59 223 7.0 9.0 0.00 0.00 0.00 45 1013.4
20260508140059 58 227 3.0 6.0 0.00 0.00 0.00 45 1013.3
20260508134554 56 217 4.0 7.0 0.00 0.00 0.00 46 1013.4
20260508133055 55 217 4.0 6.0 0.00 0.00 0.00 48 1013.6
20260508131547 53 218 3.0 6.0 0.00 0.00 0.00 48 1013.5
20260508130059 51 236 3.0 5.0 0.00 0.00 0.00 48 1013.6
20260508124549 49 235 1.0 3.0 0.00 0.00 0.00 51 1013.7
20260508123053 49 235 0.0 1.0 0.00 0.00 0.00 49 1013.6
20260508121544 46 235 2.0 3.0 0.00 0.00 0.00 52 1013.7
20260508120042 46 235 2.0 5.0 0.00 0.00 0.00 53 1013.7
20260508114547 50 173 1.0 2.0 0.00 0.00 0.00 46 1013.8
20260508113039 50 173 0.0 4.0 0.00 0.00 0.00 47 1013.8
20260508111539 49 186 1.0 7.0 0.00 0.00 0.00 49 1013.7
20260508110041 47 249 3.0 5.0 0.00 0.00 0.00 52 1013.8
20260508104543 48 249 3.0 5.0 0.00 0.00 0.00 50 1014.0